Location: Barruelo
(41.2448°N, 3.8231°W)
Time: 08:20:24
(UTC+00:00)

Cosmos 2227 Rocket - Pass Details

Date: 16 March 2026
Orbit: 836 x 845 km, 71.0° (Epoch: 18 April)

Event Time Altitude Azimuth Distance (km) Brightness Sun altitude
Rises 21:32:06 0° 344° (NNW) 3,413 6.0 -34.6°
Reaches altitude 10° 21:34:52 10° 355° (N) 2,475 5.0 -35.0°
Enters shadow 21:36:43 18° 9° (N) 1,941 4.3 -35.3°
